Starlink 30241

operational
NORAD ID: 57298 Int'l Des: 2023-096 Owner: SPXS Country: US Constellation: starlink
LEOCIRCULAR

Starlink 30241について

説明を読み込み中...

リアルタイム位置

3D地球を読み込み中...

次回通過

高度履歴

Altitude vs Time

uPlot chart will show altitude changes over time

軌道要素

1 57298U 23096J 25308.66670139 .00102047 00000-0 28200-2 0 9995
2 57298 42.9900 153.5714 0028690 253.4455 340.2353 15.35575091 5877
Epoch: Nov 4, 2025 • Age: 6 hours

現在のステータス

高度 452.0 km
速度 7.65 km/s
衛星直下点 -5.87°S, 36.73°W
打ち上げ日 Jul 10, 2023
運用期間 2.3 years
タイプ internet

技術仕様

分類 Payload
質量 730.00 kg
乾燥質量 700.00 kg
総質量 730.00 kg
長さ 0.30 m
直径 4.10 m
スパン 29.00 m
形状 Box + pan
製造者 SPXS
バスタイプ Starlink V2M
フェーズステータス In Orbit
所有者/国 SPXS/US

大規模コンステレーション

Loading constellations...